Current weather by "City, St" or "zip code"  
 

Current Conditions: Conroe, Montgomery County Airport, TX

Fair


41.0 F

Last Updated on Oct 31 2020, 2:53 am CDT
Humidity: 96%
Wind Speed: N 0.0 mph
Barometer 30.24 in
Dewpoint: 39.9 F
Visibility: 10.00 mi
Precip: --
Heat Index: NA
Wind Chill: NA
Current conditions at:

Conroe, Montgomery County Airport, TX (KCXO)

Lat: 30.35667 Lon: 95.41389

Local Radar Image active severe weather and emergency alerts image image weather storm and storm spotter reports image weather observation monitoring service image
Local
Radar
Active
Alerts
Storm Reports Obs
Monitoring

Sign-up For Email & Text Message Weather Alert Notification Services



Advertise Here

Observation History for Conroe, Montgomery County Airport, TX


Time Wind
(mph)
Vis
(mi)
Weather Precip (in) Temperature (F) Relative
Humidity
Wind
Chill
(F)
Heat
Index
(F)
Pressure
Air Dwpt altimeter
(in)
sea level
(mb)
Rmks
2:53 am CDT N 0.0 10.00 Fair -- 41.0 39.9 96% NA NA 30.24 1023.7
1:53 am CDT N 3.5 10.00 Fair -- 41.0 39.0 93% NA NA 30.23 1023.6
12:53 am CDT N 0.0 10.00 Fair -- 43.0 41.0 93% NA NA 30.23 1023.6
11:53 pm CDT N 0.0 10.00 Fair -- 44.0 42.1 93% NA NA 30.23 1023.6
10:53 pm CDT NW 3.5 10.00 Fair -- 44.0 42.1 93% NA NA 30.23 1023.5
9:53 pm CDT NW 3.5 10.00 Fair -- 46.0 44.1 93% NA NA 30.22 1023.4
8:53 pm CDT N 0.0 10.00 Fair -- 49.0 45.0 86% NA NA 30.22 1023.2
7:53 pm CDT N 0.0 10.00 Fair -- 52.0 45.0 77% NA NA 30.21 1023.0
6:53 pm CDT N 0.0 10.00 Fair -- 58.0 46.0 65% NA NA 30.21 1022.8
5:53 pm CDT NE 4.6 10.00 Fair -- 67.0 41.0 39% NA NA 30.20 1022.6
4:53 pm CDT NE 6.9 10.00 Fair -- 69.0 39.9 35% NA NA 30.20 1022.5
3:53 pm CDT 4.6 10.00 Fair -- 71.0 39.0 31% NA NA 30.21 1022.7
2:53 pm CDT N 0.0 10.00 Fair -- 69.0 37.9 32% NA NA 30.22 1023.1
1:53 pm CDT E 5.8 10.00 Fair -- 67.0 39.9 37% NA NA 30.24 1023.9
12:53 pm CDT 3.5 10.00 Fair -- 64.0 45.0 50% NA NA 30.28 1025.1
11:53 am CDT N 4.6 10.00 Fair -- 62.0 44.1 52% 62 NA 30.30 1026.1
10:53 am CDT 4.6 10.00 Fair -- 58.0 45.0 62% 58 NA 30.31 1026.4
9:53 am CDT 3.5 10.00 Fair -- 54.0 45.0 72% NA NA 30.31 1026.1
8:53 am CDT NE 3.5 10.00 Fair -- 50.0 44.1 80% NA NA 30.28 1025.2
7:53 am CDT N 0.0 10.00 Fair -- 45.0 41.0 86% NA NA 30.26 1024.7
6:53 am CDT N 0.0 10.00 Fair -- 46.0 42.1 86% NA NA 30.24 1024.0
5:53 am CDT N 4.6 10.00 Fair -- 47.0 42.1 83% 45 NA 30.23 1023.5
4:53 am CDT N 5.8 10.00 Fair -- 48.0 43.0 83% 45 NA 30.21 1022.9

Regional Weather Observation


Conroe, Montgomery County Airport, TX (KCXO)

Fair
41.0 F

Houston, Hooks Memorial Airport, TX (KDWH)

Fog/Mist
45.0 F

Cleveland, TX (K6R3)

Fair
43.0 F

College Station, Easterwood Field, TX (KCLL)

Fair
48.0 F

Brenham, Brenham Municipal Airport, TX (K11R)

Fair
43.0 F

Crockett, Houston County Airport, TX (KDKR)

NULL
NULL F